www.pogodaiklimat.ru

Погода и климат >> Архив погоды >> Россия >> Красноярский край >> Вельмо


ПОГОДА в Вельмо

  • Прогноз погоды в Вельмо
  • Монитор погоды в Вельмо

АРХИВ ПОГОДЫ в Вельмо

Время (UTC), дата Ветер
(напр.,м/с)
 
Видим.   Явления Облачность Т
(С)
Тd
(С)
f
(%)
Тe
(С)
Тes
(С)
Комфортность P
(гПа)
Po
(гПа)
Тmin
(С)
Tmax
(С)
R
(мм)
R24
(мм)
S
(см)
15 15.09 С 2 н/о 3/0
[Ci fib]
-1.7 -2.3 96 -6 -6 1014.8 999.4
18 15.09 штиль 0 н/о ясно -3.4 -4.2 94 -5 -5 1015.3 999.8
21 15.09 штиль 0 н/о туман поземный ясно -3.9 -4.7 94 -5 -5 1017.7 1002.1
00 16.09 штиль 0 20 км туман поземный ясно -4.0 -4.8 94 -5 -5 1018.6 1002.9 -4.7 3
03 16.09 штиль 0 50 км 8/0 2000 м
[Ac trans Ci fib]
+0.6 -0.8 90 -1 +2 1019.3 1004.0
06 16.09 С 1 20 км 10/8 1000 м
[Cb cap As trans]
+5.1 -3.1 55 +4 +5 1019.1 1004.0
09 16.09 ЮЗ 1 20 км в посл. час ливневой дождь 10/10 1000 м
[Cb cap]
+5.8 +0.1 67 +5 +5 1019.1 1004.0
12 16.09 В 1 20 км в посл. час ливневой дождь 10/10 600 м
[Cb cap]
+3.4 +1.9 90 +2 +2 1018.3 1003.1 +7.2 0.6
15 16.09 С 1 н/о {ливн. осадки} 10/10 1000 м
[Cb cap]
+2.4 +1.4 93 +1 +1 1017.1 1002.0
18 16.09 С 1 н/о {ливн. осадки} 10/10 1000 м
[Cb cap]
+2.2 +1.1 92 0 0 1016.6 1001.4
21 16.09 штиль 0 н/о {ливн. осадки} 10/10 1000 м
[Cb cap]
+2.3 +1.5 94 +1 +1 1016.1 1000.9
00 17.09 штиль 0 20 км {ливн. осадки} 10/10 1000 м
[Cb cap]
+3.1 +2.3 94 +2 +2 1015.8 1000.7 +2.1 2
03 17.09 штиль 0 20 км 10/10 1000 м
[Cb cap]
+4.3 +3.3 93 +3 +3 1016.0 1001.0
06 17.09 ЮВ 2 20 км в посл. час ливневой дождь 10/10 1000 м
[Cb cap]
+5.9 +4.3 89 +3 +3 1014.8 999.8
09 17.09 ЮВ 2 20 км 9/8 1000 м
[Cb calv Ci fib]
+11.7 +7.8 77 +11 +11 1013.1 998.4
12 17.09 С 1 20 км 8/3 1000 м
[Cb calv Ci sp]
+7.9 +6.4 90 +7 +7 1012.5 997.7 +11.7 0.0
15 17.09 С 1 н/о 9/3 1000 м
[Cb calv Ac trans Ci fib]
+4.2 +3.0 92 +3 +3 1012.8 997.7
18 17.09 штиль 0 н/о слаб. ливневой дождь 10/10 1000 м
[Cb cap]
+3.8 +2.8 93 +3 +3 1011.9 996.9
21 17.09 штиль 0 н/о ливневой дождь 10/10 600 м
[Cb cap]
+4.3 +3.6 95 +3 +3 1009.7 994.8
00 18.09 С 1 20 км {ливн. осадки} 10/10 600 м
[Cb cap]
+5.2 +4.3 94 +4 +4 1008.1 993.2 +2.8 3
03 18.09 С 1 10 км ливневой дождь 10/10 600 м
[Cb cap]
+6.5 +5.8 95 +5 +5 1007.2 992.4
06 18.09 СЗ 1 20 км {ливн. осадки} 9/8 1000 м
[Cb cap Ci fib]
+10.6 +9.0 90 +10 +11 1008.7 994.1
09 18.09 СЗ 2 50 км в посл. час ливневой дождь 9/9 1000 м
[Cb cap]
+12.9 +7.4 69 +12 +12 1010.3 995.8
12 18.09 СЗ 3 н/о ливневой дождь 10/10 1000 м
[Cb cap]
+9.8 +6.6 80 +8 +8 1011.6 996.9 +13.2 6
15 18.09 СЗ 1 н/о слаб. ливневой дождь 10/10 1000 м
[Cb cap]
+7.5 +6.4 93 +6 +6 1011.8 997.0
18 18.09 С 1 н/о {ливн. осадки} 10/10 1000 м
[Cb cap]
+5.3 +4.4 94 +4 +4 1013.4 998.4
21 18.09 С 1 н/о 10/10 1000 м
[Cb cap]
+4.2 +3.5 95 +3 +3 1013.6 998.6
00 19.09 штиль 0 20 км 9/9 1000 м
[Cb cap]
+4.1 +3.1 93 +3 +3 1014.4 999.3 +3.9 7
03 19.09 штиль 0 20 км 10/10 1000 м
[Cb cap]
+6.7 +5.3 91 +6 +6 1015.0 1000.1
06 19.09 ЮВ 1 20 км слаб. ливневой дождь 10/6 1000 м
[Cb cap As op]
+10.1 +9.1 94 +10 +10 1013.6 998.9
09 19.09 В 3 10 км слаб. ливневой дождь 10/8 1000 м
[Cb cap As op]
+11.0 +10.0 94 +9 +9 1010.9 996.3
12 19.09 С 2 н/о слаб. ливневой дождь 10/8 1000 м
[Cb cap As op]
+11.0 +9.8 92 +10 +10 1008.2 993.6 +11.4 6
15 19.09 СЗ 2 н/о {ливн. осадки} 10/10 600 м
[Cb cap]
+11.0 +9.8 92 +10 +10 1005.9 991.4
18 19.09 СЗ 1 н/о {ливн. осадки} 10/10 1000 м
[Cb cap]
+11.0 +10.0 94 +11 +11 1006.3 991.8
21 19.09 З 1 н/о 9/5 1000 м
[Cb cap Ac trans Ci fib]
+9.5 +8.5 93 +9 +9 1007.9 993.2
00 20.09 штиль 0 н/о {ливн. осадки} 10/4 1000 м
[Cb cap As op]
+9.1 +8.3 95 +8 +8 1007.9 993.2 +8.4 3
03 20.09 ЮВ 1 20 км {ливн. осадки} 10/4 1000 м
[Cb calv Cs]
+14.1 +10.7 80 +14 +16 1005.2 990.9
06 20.09 В 2 50 км {ливн. осадки} 9/0
[Ac trans Ci fib]
+17.6 +10.5 63 +18 +21 1001.8 987.6
09 20.09 ЮВ 5
{10}
50 км 9/0
[Ac trans Ci sp]
+22.5 +10.1 45 +24 +25 комфорт 997.0 983.1
12 20.09 Ю 4
{12}
н/о 9/8 1000 м
[Sc Ci fib]
+21.4 +8.0 42 +22 +22 комфорт 995.2 981.3 +22.5 0.0
15 20.09 СЗ 2
{14}
н/о {дождь} 3/3 1000 м
[Sc]
+13.1 +12.2 94 +12 +12 995.2 980.9
18 20.09 ЮЗ 5-10
{14}
н/о {дождь} ясно +10.8 -0.7 45 +8 +8 998.6 984.1
21 20.09 З 2
{14}
н/о 9/9 1000 м
[Sc]
+10.8 +1.8 54 +10 +10 1002.7 988.1
00 21.09 ЮЗ 2 н/о 10/10 1000 м
[Cb cap]
+9.7 +1.2 55 +9 +9 1003.5 988.8 +9.7 0.5
03 21.09 З 6
{12}
20 км 10/10 1000 м
[Cb cap]
+10.2 +2.8 60 +7 +7 1005.3 990.8
06 21.09 З 3
{13}
20 км в посл. час ливневой дождь 10/10 1000 м
[Cb cap]
+9.2 +6.2 81 +7 +7 1008.2 993.5
09 21.09 З 3
{14}
50 км {ливн. осадки} 8/8 1000 м
[Cb calv]
+9.8 +3.4 64 +8 +8 1009.9 995.2
12 21.09 З 3
{12}
н/о {ливн. осадки} 9/6 1000 м
[Cb cap Ci fib]
+10.0 +1.0 54 +8 +8 1012.0 997.3 +12.0 1
15 21.09 З 2 н/о 9/8 1000 м
[Cb cap Ci sp]
+8.6 +2.1 64 +7 +7 1015.2 1000.4
18 21.09 З 2 н/о 10/10 1000 м
[Cb cap]
+7.4 +2.6 72 +6 +6 1016.8 1001.9
21 21.09 штиль 0 н/о 10/10 1000 м
[Cb cap]
+5.2 +2.2 81 +4 +4 1019.8 1004.7
00 22.09 С 1 н/о 9/9 1000 м
[Cb calv]
+4.6 +2.9 89 +3 +3 1020.1 1005.0 +4.1
03 22.09 З 3 20 км слаб. ливневой дождь 10/10 1000 м
[Cb cap]
+5.3 +2.3 81 +2 +2 1021.4 1006.3
06 22.09 З 2 20 км слаб. ливневой дождь 9/9 1000 м
[Cb cap]
+8.0 +1.4 63 +6 +7 1022.8 1007.7
09 22.09 З 2 50 км {ливн. осадки} 9/3 1000 м
[Cb calv Ci sp]
+8.7 +1.1 59 +7 +8 1023.5 1008.5

 

Местоположение метеостанции Вельмо (Красноярский край, Россия): широта 61.02 долгота 93.42 высота над уровнем моря 122 м.

В архиве по умолчанию представлена погода в Вельмо за последнюю неделю. Архивные данные за месяц целиком и за предыдущие месяцы, начиная с января 2011 года, Вы можете получить, выбрав интересующий диапазон дат из раскрывающегося списка и нажав кнопку "Ввод!".


*Определитесь, кто Вы:
робот инопланетянин человек

Внимание! Время в таблицах - всемирное. Для получения местного времени необходимо прибавить поправку, которая равна 7 ч.

Смотрите также архив погоды в соседних городах и на ближайших метеорологических станциях:

Погода в Северо-Енисейском (Красноярский край, Россия) (74 км)
Погода в Кузьмовке (Эвенкия, Россия) (160 км)
Погода в Байките (Эвенкия, Россия) (173 км)
Погода в Ярцево (Красноярский край, Россия) (192 км)
Погода в Бору (Красноярский край, Россия) (193 км)
Погода в Ворогово (Красноярский край, Россия) (204 км)
Погода в Назимово (Красноярский край, Россия) (215 км)
Погода в Усть-Камо (Эвенкия, Россия) (224 км)
Погода в Бахте (Красноярский край, Россия) (283 км)
Погода в Сыме (Красноярский край, Россия) (285 км)

Пояснения к столбцам:

Ветер - указаны скорость ветра в м/с - средняя за 10 мин, порывы в срок и между сроками (в фигурных скобках) и направление, откуда дует ветер: С - северный, СВ - северо-восточный, В - восточный, ЮВ - юго-восточный, Ю - южный, ЮЗ - юго-западный, З - западный, СЗ - северо-западный.
Видимость - горизонтальная дальность видимости в метрах или километрах. При видимости от 1 до 10 км при отсутствии осадков обычно наблюдается дымка, при ухудшении видимости до 1 км и менее - туман. В сухую погоду видимость может ухудшаться дымом, пылью или мглою.
Явления - указаны атмосферные явления, наблюдавшиеся в срок или в последний час перед сроком; фигурными скобками обозначены явления, наблюдавшиеся между сроками (за 1-3 часа до срока); квадратными скобками обозначены град или гололедные отложения с указанием их диаметра в мм.
Облачность - указаны через наклонную черту общая и нижняя облачность в баллах и высота нижней границы облаков в метрах; квадратными скобками обозначены формы облаков: Ci - перистые, Cs - перисто-слоистые, Cc - перисто-кучевые, Ac - высококучевые, As - высокослоистые, Sc - слоисто-кучевые, Ns - слоисто-дождевые, Cu - кучевые, Cb - кучево-дождевые. Подробнее классификацию облаков см. в Атласе облаков (PDF).
T - Температура воздуха - температура, измеренная на высоте 2 м над землей.
Td - Температура точки росы - температура, при понижении до которой содержащийся в воздухе водяной пар достигнет насыщения.
f - Относительная влажность воздуха - влажноcть воздуха, измеренная на высоте 2 м над землей.
Te - Эффективная температура - температура, которую ощущает одетый по сезону человек в тени. Характеристика душности погоды. При расчете учитывается влияние влажности воздуха и скорости ветра на теплоощущения человека.
Tes - Эффективная температура на солнце - температура, которую ощущает человек, с поправкой на солнечный нагрев. Характеристика знойности погоды. Зависит от высоты солнца над горизонтом, облачности и скорости ветра. Ночью, в пасмурную погоду, а также при ветре 12 м/с и более поправка равна нулю.
P - Атмосферное давление - приведенное к уровню моря атмосферное давление.
Po - Атмосферное давление - измеренное на уровне метеостанции атмосферное давление.
Tmin - Минимальная температура - минимум температуры воздуха на высоте 2 м над землей.
Tmax - Максимальная температура - максимум температуры воздуха на высоте 2 м над землей.
R - Количество осадков - Количество выпавших осадков за период времени, мм. При наведении курсора мыши на число - период времени, за который выпало указанное количество осадков.
R24 - Количество осадков - Количество выпавших осадков за 24 часа, мм.
S - Снежный покров - Высота снежного покрова, см. При наведении курсора мыши на число - состояние снежного покрова и степень покрытия местности в баллах.